Home   Weather   Jamestown   Past weeks

Flag for Saint Helena Past Weather in Jamestown, Saint Helena — Yesterday and Last 2 Weeks

Now
71 °F

Partly sunny.


Feels Like: 72 °F
Forecast: 72 / 75 °F
Wind: 8 mph from Southeast

Location: Saint Helena Island

Current Time: May 24, 2017 at 1:45:19 pm

Latest Report: May 24, 2017 at 1:00 pm


Visibility: 31 mi

Pressure: 30.05 "Hg

Humidity: 78%

Dew Point: 64 °F

Location of JamestownLocation

Past Weather in Jamestown — Graph

°F

Jamestown Temperature Yesterday

Maximum temperature yesterday: 72 °F (at 1:00 pm)
Minimum temperature yesterday: 61 °F (at 12:00 am)
Average temperature yesterday: 67 °F

High & Low Weather Summary for the Past Weeks

 TemperatureHumidityPressure
High75 °F (May 14, 11:00 am)98% (May 20, 10:00 pm)30.14 "Hg (May 20, 10:00 pm)
Low61 °F (May 22, 11:00 pm)61% (May 10, 12:00 pm)29.94 "Hg (May 22, 5:00 pm)
Average68 °F86%30.04 "Hg
* Reported May 9 12:00 pm — May 24 12:00 pm, Jamestown. Weather by CustomWeather, © 2017

Note: Actual official high and low records may vary slightly from our data, if they occured in-between our weather recording intervals... More about our weather records

Advertising

Jamestown Weather History for the Previous 24 Hours

Scroll right to see more
 ConditionsComfort  
Time TempWeatherWind HumidityBarometerVisibility
12:00 pm
Wed, May 24
71 °FMild.9 mph83%30.07 "HgN/A
11:00 am70 °FLow clouds.10 mph83%30.08 "Hg28 mi
10:00 am71 °FOvercast.9 mph80%30.08 "Hg28 mi
9:00 am68 °FLow clouds.10 mph90%30.08 "Hg28 mi
8:00 am67 °FMild.10 mph92%30.06 "HgN/A
7:00 am66 °FMild.8 mph93%30.03 "HgN/A
5:00 am66 °FMild.9 mph93%30.01 "HgN/A
4:00 am66 °FMild.8 mph93%30.01 "HgN/A
3:00 am65 °FMild.12 mph93%30.01 "HgN/A
2:00 am65 °FMild.12 mph92%30.02 "HgN/A
1:00 am66 °FMild.9 mph91%30.04 "HgN/A
12:00 am66 °FMild.10 mph93%30.04 "HgN/A
11:00 pm
Tue, May 23
66 °FMild.10 mph90%30.05 "HgN/A
10:00 pm66 °FMild.8 mph90%30.05 "HgN/A
9:00 pm66 °FMild.12 mph90%30.03 "HgN/A
8:00 pm66 °FMild.10 mph91%30.02 "HgN/A
7:00 pm66 °FMild.9 mph87%30.00 "HgN/A
6:00 pm66 °FMild.7 mph83%29.98 "HgN/A
5:00 pm69 °FMild.8 mph80%29.97 "HgN/A
4:00 pm71 °FMild.7 mph76%29.97 "HgN/A
3:00 pm72 °FPartly sunny.6 mph72%29.97 "Hg40 mi
2:00 pm71 °FPartly sunny.5 mph73%29.99 "Hg37 mi
1:00 pm72 °FPartly sunny.6 mph71%30.00 "Hg37 mi
Weather by CustomWeather, © 2017

See weather overviewHow to use our weather pages